ITY1736 LICC-LIRF

Flight info

Callsign ITY1736
Flight time 1h 8m
Altitude 34000
Route BUDIN DCT DIRED DCT SOR DCT TEA/N0388F180 Z803 LAT
Aircraft A320/M-SDE3FGHIRWY/LB1

Departure

Time 2026-05-07 09:41
Airport Catania-Fontanarossa Airport (LICC)

Arrival

Time 2026-05-07 10:49
Airport Rome–Fiumicino Leonardo da Vinci International Airport (LIRF)
Time Latitude Longitude Altitude Speed Heading
2026-05-07 09:03 37.46955 15.06291 47 ft 0 kts 316°
2026-05-07 09:32 37.46953 15.06292 51 ft 3 kts 292°
2026-05-07 09:32 37.46948 15.06271 51 ft 3 kts 251°
2026-05-07 09:33 37.46950 15.06287 51 ft 3 kts 292°
2026-05-07 09:33 37.46942 15.06299 50 ft 3 kts 334°
2026-05-07 09:33 37.46924 15.06310 45 ft 3 kts 334°
2026-05-07 09:33 37.46905 15.06321 48 ft 3 kts 334°
2026-05-07 09:34 37.46887 15.06333 49 ft 3 kts 334°
2026-05-07 09:34 37.46868 15.06344 50 ft 3 kts 332°
2026-05-07 09:34 37.46850 15.06357 48 ft 3 kts 328°
2026-05-07 09:34 37.46833 15.06371 47 ft 3 kts 313°
2026-05-07 09:35 37.46824 15.06390 46 ft 3 kts 270°
2026-05-07 09:35 37.46824 15.06399 47 ft 0 kts 263°
2026-05-07 09:37 37.46823 15.06385 46 ft 3 kts 263°
2026-05-07 09:37 37.46819 15.06346 51 ft 6 kts 263°
2026-05-07 09:37 37.46814 15.06283 51 ft 8 kts 263°
2026-05-07 09:38 37.46807 15.06206 48 ft 10 kts 263°
2026-05-07 09:38 37.46798 15.06110 51 ft 12 kts 263°
2026-05-07 09:38 37.46789 15.05996 51 ft 14 kts 265°
2026-05-07 09:38 37.46778 15.05861 48 ft 17 kts 264°
2026-05-07 09:39 37.46766 15.05717 51 ft 16 kts 264°
2026-05-07 09:39 37.46755 15.05587 51 ft 14 kts 264°
2026-05-07 09:39 37.46745 15.05463 51 ft 15 kts 264°
2026-05-07 09:39 37.46735 15.05355 49 ft 9 kts 260°
2026-05-07 09:40 37.46695 15.05284 51 ft 11 kts 221°
2026-05-07 09:40 37.46639 15.05219 51 ft 11 kts 223°
2026-05-07 09:40 37.46571 15.05204 49 ft 10 kts 135°
2026-05-07 09:40 37.46563 15.05266 48 ft 0 kts 85°
2026-05-07 09:41 37.46567 15.05318 51 ft 31 kts 84°
2026-05-07 09:41 37.46615 15.05880 51 ft 95 kts 84°
2026-05-07 09:41 37.46704 15.06910 189 ft 130 kts 79°
2026-05-07 09:41 37.46773 15.08047 796 ft 132 kts 76°
2026-05-07 09:42 37.46909 15.09187 1407 ft 138 kts 81°
2026-05-07 09:42 37.47091 15.10472 1743 ft 159 kts 79°
2026-05-07 09:42 37.47303 15.11941 2044 ft 185 kts 81°
2026-05-07 09:42 37.47539 15.13646 2472 ft 205 kts 82°
2026-05-07 09:43 37.47790 15.15456 3243 ft 214 kts 85°
2026-05-07 09:43 37.48048 15.17334 4021 ft 221 kts 85°
2026-05-07 09:43 37.48309 15.19260 4872 ft 225 kts 86°
2026-05-07 09:43 37.48573 15.21224 5684 ft 230 kts 86°
2026-05-07 09:44 37.48848 15.23254 6404 ft 240 kts 85°
2026-05-07 09:44 37.49135 15.25366 7063 ft 249 kts 88°
2026-05-07 09:44 37.49617 15.27512 7788 ft 263 kts 72°
2026-05-07 09:44 37.50654 15.29507 8405 ft 285 kts 53°
2026-05-07 09:45 37.52275 15.31108 8881 ft 307 kts 33°
2026-05-07 09:45 37.54137 15.32507 9540 ft 316 kts 33°
2026-05-07 09:45 37.56037 15.33952 10199 ft 325 kts 33°
2026-05-07 09:45 37.58035 15.35494 10441 ft 349 kts 33°
2026-05-07 09:46 37.60167 15.37159 10641 ft 372 kts 33°
2026-05-07 09:46 37.62419 15.38925 11002 ft 387 kts 33°
2026-05-07 09:46 37.64729 15.40739 11629 ft 393 kts 33°
2026-05-07 09:46 37.67088 15.42528 12304 ft 398 kts 27°
2026-05-07 09:47 37.69644 15.43792 12959 ft 402 kts 14°
2026-05-07 09:47 37.72403 15.44355 13648 ft 403 kts
2026-05-07 09:47 37.75189 15.44166 14302 ft 400 kts 347°
2026-05-07 09:47 37.77859 15.43249 14958 ft 396 kts 335°
2026-05-07 09:48 37.80422 15.41958 15629 ft 397 kts 334°
2026-05-07 09:48 37.82996 15.40662 16295 ft 399 kts 334°
2026-05-07 09:48 37.85580 15.39367 16958 ft 400 kts 334°
2026-05-07 09:48 37.88172 15.38071 17630 ft 402 kts 334°
2026-05-07 09:49 37.90777 15.36771 18285 ft 403 kts 334°
2026-05-07 09:49 37.93395 15.35466 18831 ft 405 kts 334°
2026-05-07 09:49 37.96022 15.34151 19378 ft 407 kts 333°
2026-05-07 09:49 37.98663 15.32822 19881 ft 410 kts 333°
2026-05-07 09:50 38.01318 15.31484 20395 ft 412 kts 333°
2026-05-07 09:50 38.03990 15.30137 20917 ft 414 kts 333°
2026-05-07 09:50 38.06676 15.28784 21420 ft 417 kts 333°
2026-05-07 09:50 38.09381 15.27420 21895 ft 419 kts 333°
2026-05-07 09:51 38.12095 15.26049 22355 ft 421 kts 333°
2026-05-07 09:51 38.14831 15.24666 22789 ft 425 kts 333°
2026-05-07 09:51 38.17583 15.23276 23239 ft 427 kts 332°
2026-05-07 09:51 38.20351 15.21875 23653 ft 429 kts 332°
2026-05-07 09:52 38.23128 15.20469 24007 ft 430 kts 332°
2026-05-07 09:52 38.25911 15.19055 24410 ft 431 kts 332°
2026-05-07 09:52 38.28696 15.17639 24801 ft 431 kts 331°
2026-05-07 09:52 38.31482 15.16222 25195 ft 431 kts 331°
2026-05-07 09:53 38.34271 15.14808 25582 ft 432 kts 331°
2026-05-07 09:53 38.37062 15.13395 25977 ft 432 kts 331°
2026-05-07 09:53 38.39858 15.11975 26304 ft 433 kts 331°
2026-05-07 09:53 38.42660 15.10546 26645 ft 434 kts 331°
2026-05-07 09:54 38.45465 15.09111 26973 ft 435 kts 330°
2026-05-07 09:54 38.48277 15.07673 27291 ft 436 kts 330°
2026-05-07 09:54 38.51094 15.06235 27602 ft 436 kts 330°
2026-05-07 09:54 38.53916 15.04793 27904 ft 437 kts 330°
2026-05-07 09:55 38.56742 15.03352 28194 ft 438 kts 330°
2026-05-07 09:55 38.59571 15.01910 28474 ft 438 kts 330°
2026-05-07 09:55 38.62409 15.00463 28770 ft 439 kts 331°
2026-05-07 09:55 38.65248 14.99013 29067 ft 440 kts 331°
2026-05-07 09:56 38.68046 14.97581 29405 ft 438 kts 330°
2026-05-07 09:56 38.70873 14.96131 29796 ft 437 kts 330°
2026-05-07 09:56 38.73686 14.94683 30140 ft 435 kts 330°
2026-05-07 09:56 38.76486 14.93238 30471 ft 433 kts 330°
2026-05-07 09:57 38.79272 14.91801 30808 ft 431 kts 329°
2026-05-07 09:57 38.82052 14.90366 31100 ft 430 kts 329°
2026-05-07 09:57 38.84823 14.88937 31448 ft 428 kts 329°
2026-05-07 09:57 38.87584 14.87512 31762 ft 427 kts 329°
2026-05-07 09:58 38.90329 14.86093 32113 ft 424 kts 328°
2026-05-07 09:58 38.93055 14.84687 32501 ft 420 kts 328°
2026-05-07 09:58 38.95754 14.83296 32914 ft 416 kts 327°
2026-05-07 09:58 38.98425 14.81919 33336 ft 411 kts 327°
2026-05-07 09:59 39.01063 14.80556 33774 ft 406 kts 326°
2026-05-07 09:59 39.03674 14.79203 33948 ft 403 kts 326°
2026-05-07 09:59 39.06275 14.77852 33978 ft 403 kts 326°
2026-05-07 10:00 39.11483 14.75130 33983 ft 407 kts 326°
2026-05-07 10:00 39.16743 14.72370 33985 ft 409 kts 327°
2026-05-07 10:01 39.22026 14.69617 33988 ft 410 kts 327°
2026-05-07 10:01 39.27317 14.66872 33985 ft 410 kts 327°
2026-05-07 10:02 39.32603 14.64113 34020 ft 410 kts 327°
2026-05-07 10:02 39.37900 14.61330 33991 ft 412 kts 327°
2026-05-07 10:03 39.43216 14.58538 33988 ft 413 kts 327°
2026-05-07 10:03 39.48507 14.55759 33989 ft 414 kts 327°
2026-05-07 10:04 39.53838 14.52945 33989 ft 414 kts 327°
2026-05-07 10:04 39.59529 14.51006 34007 ft 435 kts 342°
2026-05-07 10:05 39.65556 14.49967 33987 ft 438 kts 342°
2026-05-07 10:05 39.71612 14.48926 33988 ft 440 kts 342°
2026-05-07 10:06 39.77683 14.47863 33990 ft 441 kts 342°
2026-05-07 10:06 39.83764 14.46789 33997 ft 441 kts 342°
2026-05-07 10:07 39.89852 14.45711 34002 ft 442 kts 342°
2026-05-07 10:07 39.95946 14.44634 34007 ft 442 kts 342°
2026-05-07 10:08 40.02042 14.43550 34042 ft 442 kts 343°
2026-05-07 10:08 40.08149 14.42460 34029 ft 443 kts 343°
2026-05-07 10:09 40.14267 14.41379 34019 ft 444 kts 343°
2026-05-07 10:09 40.20391 14.40297 34021 ft 444 kts 343°
2026-05-07 10:10 40.26519 14.39201 34044 ft 444 kts 344°
2026-05-07 10:10 40.32642 14.38103 34042 ft 444 kts 344°
2026-05-07 10:11 40.38765 14.37010 34026 ft 444 kts 344°
2026-05-07 10:11 40.44890 14.35916 34049 ft 444 kts 344°
2026-05-07 10:12 40.51013 14.34815 34039 ft 444 kts 344°
2026-05-07 10:12 40.56100 14.33894 34037 ft 444 kts 343°
2026-05-07 10:13 40.62804 14.31210 34031 ft 430 kts 331°
2026-05-07 10:13 40.68394 14.28379 34047 ft 430 kts 332°
2026-05-07 10:14 40.73081 14.26013 34041 ft 430 kts 332°
2026-05-07 10:14 40.78669 14.23183 34046 ft 430 kts 332°
2026-05-07 10:15 40.84254 14.20340 34054 ft 431 kts 331°
2026-05-07 10:15 40.89853 14.17490 34045 ft 431 kts 331°
2026-05-07 10:16 40.95416 14.14654 34015 ft 432 kts 331°
2026-05-07 10:16 41.01019 14.11795 34010 ft 432 kts 331°
2026-05-07 10:17 41.06625 14.08928 34008 ft 432 kts 331°
2026-05-07 10:17 41.12226 14.06061 34048 ft 432 kts 331°
2026-05-07 10:18 41.17824 14.03174 34052 ft 432 kts 331°
2026-05-07 10:18 41.23430 14.00282 33763 ft 433 kts 331°
2026-05-07 10:18 41.26192 13.98730 33486 ft 428 kts 326°
2026-05-07 10:19 41.28698 13.96671 33216 ft 421 kts 316°
2026-05-07 10:19 41.30883 13.94124 32948 ft 416 kts 308°
2026-05-07 10:19 41.32717 13.91185 32684 ft 412 kts 300°
2026-05-07 10:19 41.34345 13.88038 32420 ft 414 kts 300°
2026-05-07 10:20 41.35975 13.84871 31570 ft 418 kts 300°
2026-05-07 10:20 41.37629 13.81653 30575 ft 423 kts 300°
2026-05-07 10:20 41.39301 13.78400 29497 ft 429 kts 300°
2026-05-07 10:20 41.40994 13.75106 28426 ft 433 kts 300°
2026-05-07 10:21 41.42689 13.71768 27299 ft 436 kts 297°
2026-05-07 10:21 41.44073 13.68191 26405 ft 430 kts 288°
2026-05-07 10:21 41.44995 13.64510 25698 ft 409 kts 280°
2026-05-07 10:21 41.45530 13.60845 24967 ft 401 kts 276°
2026-05-07 10:22 41.45997 13.57189 24245 ft 399 kts 276°
2026-05-07 10:22 41.46461 13.53547 23549 ft 399 kts 276°
2026-05-07 10:22 41.46925 13.49897 22785 ft 399 kts 276°
2026-05-07 10:22 41.47386 13.46268 22127 ft 395 kts 276°
2026-05-07 10:23 41.47839 13.42670 21497 ft 392 kts 276°
2026-05-07 10:23 41.48288 13.39092 20867 ft 390 kts 276°
2026-05-07 10:23 41.48734 13.35538 20275 ft 388 kts 276°
2026-05-07 10:23 41.49177 13.31998 19682 ft 386 kts 276°
2026-05-07 10:24 41.49615 13.28476 19105 ft 384 kts 276°
2026-05-07 10:24 41.50050 13.24979 18561 ft 381 kts 276°
2026-05-07 10:24 41.50480 13.21502 17972 ft 379 kts 276°
2026-05-07 10:24 41.50904 13.18054 17459 ft 374 kts 276°
2026-05-07 10:25 41.51320 13.14699 16951 ft 358 kts 276°
2026-05-07 10:25 41.51712 13.11550 16808 ft 331 kts 276°
2026-05-07 10:25 41.52077 13.08620 16561 ft 311 kts 276°
2026-05-07 10:25 41.52422 13.05823 16289 ft 302 kts 276°
2026-05-07 10:26 41.52758 13.03066 16035 ft 300 kts 276°
2026-05-07 10:26 41.53091 13.00318 15786 ft 300 kts 276°
2026-05-07 10:26 41.53421 12.97585 15540 ft 298 kts 276°
2026-05-07 10:26 41.53764 12.94864 15297 ft 298 kts 279°
2026-05-07 10:27 41.54464 12.92251 15048 ft 302 kts 294°
2026-05-07 10:27 41.55654 12.89929 14803 ft 306 kts 308°
2026-05-07 10:27 41.57174 12.87974 14572 ft 308 kts 313°
2026-05-07 10:27 41.58744 12.86031 14331 ft 307 kts 313°
2026-05-07 10:28 41.60308 12.84093 14092 ft 306 kts 313°
2026-05-07 10:28 41.61865 12.82159 13853 ft 305 kts 313°
2026-05-07 10:28 41.63414 12.80223 13595 ft 304 kts 313°
2026-05-07 10:28 41.64952 12.78295 13336 ft 303 kts 313°
2026-05-07 10:29 41.66486 12.76374 13076 ft 301 kts 313°
2026-05-07 10:29 41.68011 12.74469 12815 ft 299 kts 314°
2026-05-07 10:29 41.69526 12.72572 12558 ft 297 kts 314°
2026-05-07 10:30 41.72516 12.68815 12057 ft 293 kts 313°
2026-05-07 10:30 41.73996 12.66953 11803 ft 291 kts 313°
2026-05-07 10:30 41.75467 12.65102 11553 ft 289 kts 313°
2026-05-07 10:30 41.76929 12.63260 11305 ft 288 kts 313°
2026-05-07 10:31 41.78385 12.61428 11069 ft 286 kts 314°
2026-05-07 10:31 41.79835 12.59605 10816 ft 285 kts 314°
2026-05-07 10:31 41.81269 12.57782 10570 ft 283 kts 313°
2026-05-07 10:31 41.82669 12.55930 10328 ft 282 kts 312°
2026-05-07 10:32 41.84044 12.54068 10094 ft 280 kts 311°
2026-05-07 10:32 41.85408 12.52209 9913 ft 279 kts 311°
2026-05-07 10:32 41.86763 12.50359 9783 ft 274 kts 311°
2026-05-07 10:32 41.88076 12.48574 9640 ft 263 kts 311°
2026-05-07 10:33 41.89396 12.46918 9513 ft 259 kts 320°
2026-05-07 10:33 41.90967 12.45726 9382 ft 262 kts 335°
2026-05-07 10:33 41.92705 12.44977 9247 ft 263 kts 340°
2026-05-07 10:33 41.94450 12.44258 9127 ft 262 kts 340°
2026-05-07 10:34 41.96195 12.43535 8994 ft 262 kts 340°
2026-05-07 10:34 41.97940 12.42812 8862 ft 262 kts 340°
2026-05-07 10:34 41.99681 12.42090 8732 ft 262 kts 340°
2026-05-07 10:34 42.01420 12.41365 8608 ft 261 kts 340°
2026-05-07 10:35 42.03157 12.40640 8485 ft 261 kts 340°
2026-05-07 10:35 42.04894 12.39916 8355 ft 262 kts 340°
2026-05-07 10:35 42.06634 12.39194 8228 ft 261 kts 340°
2026-05-07 10:35 42.08373 12.38473 8100 ft 261 kts 340°
2026-05-07 10:36 42.10103 12.37751 7974 ft 259 kts 340°
2026-05-07 10:36 42.11793 12.37046 7849 ft 251 kts 340°
2026-05-07 10:36 42.13431 12.36361 7723 ft 249 kts 340°
2026-05-07 10:36 42.15081 12.35667 7598 ft 248 kts 340°
2026-05-07 10:37 42.16727 12.34974 7473 ft 248 kts 340°
2026-05-07 10:37 42.18394 12.34273 7347 ft 247 kts 340°
2026-05-07 10:37 42.20037 12.33584 7223 ft 247 kts 341°
2026-05-07 10:37 42.21669 12.32898 7102 ft 242 kts 341°
2026-05-07 10:38 42.23250 12.32233 6979 ft 237 kts 341°
2026-05-07 10:38 42.24797 12.31583 6865 ft 235 kts 341°
2026-05-07 10:38 42.26378 12.30916 6734 ft 235 kts 341°
2026-05-07 10:38 42.27913 12.30257 6603 ft 235 kts 337°
2026-05-07 10:39 42.29253 12.29097 6474 ft 228 kts 310°
2026-05-07 10:39 42.30061 12.27286 6424 ft 226 kts 284°
2026-05-07 10:39 42.30176 12.25200 6374 ft 224 kts 258°
2026-05-07 10:39 42.29589 12.23275 6322 ft 224 kts 233°
2026-05-07 10:40 42.28459 12.21831 6270 ft 225 kts 219°
2026-05-07 10:40 42.27234 12.20509 6218 ft 225 kts 219°
2026-05-07 10:40 42.26008 12.19180 6135 ft 226 kts 219°
2026-05-07 10:40 42.24785 12.17851 6038 ft 225 kts 219°
2026-05-07 10:41 42.23440 12.16791 6007 ft 226 kts 199°
2026-05-07 10:41 42.21901 12.16466 5737 ft 224 kts 178°
2026-05-07 10:41 42.20380 12.16921 5209 ft 225 kts 162°
2026-05-07 10:41 42.18918 12.17555 4913 ft 218 kts 162°
2026-05-07 10:42 42.17485 12.18170 4544 ft 215 kts 163°
2026-05-07 10:42 42.16063 12.18768 4086 ft 213 kts 165°
2026-05-07 10:42 42.14614 12.19005 3761 ft 211 kts 183°
2026-05-07 10:42 42.13174 12.18676 3528 ft 209 kts 193°
2026-05-07 10:43 42.11755 12.18245 3251 ft 209 kts 193°
2026-05-07 10:43 42.10342 12.17821 3088 ft 208 kts 192°
2026-05-07 10:43 42.08935 12.17401 3069 ft 207 kts 192°
2026-05-07 10:43 42.07573 12.17025 3104 ft 195 kts 186°
2026-05-07 10:44 42.06251 12.17156 3083 ft 190 kts 168°
2026-05-07 10:44 42.04981 12.17605 3078 ft 188 kts 164°
2026-05-07 10:44 42.03730 12.18113 3084 ft 187 kts 163°
2026-05-07 10:44 42.02485 12.18633 3094 ft 188 kts 163°
2026-05-07 10:45 42.01241 12.19156 3003 ft 187 kts 163°
2026-05-07 10:45 41.99995 12.19680 3001 ft 188 kts 163°
2026-05-07 10:45 41.98750 12.20204 2863 ft 187 kts 163°
2026-05-07 10:45 41.97515 12.20724 2654 ft 185 kts 163°
2026-05-07 10:46 41.96291 12.21239 2411 ft 184 kts 163°
2026-05-07 10:46 41.95072 12.21752 2165 ft 180 kts 161°
2026-05-07 10:46 41.93914 12.22238 1934 ft 170 kts 162°
2026-05-07 10:46 41.92803 12.22705 1734 ft 163 kts 162°
2026-05-07 10:47 41.91768 12.23139 1505 ft 149 kts 162°
2026-05-07 10:47 41.90802 12.23545 1307 ft 143 kts 162°
2026-05-07 10:47 41.89864 12.23939 1123 ft 140 kts 162°
2026-05-07 10:47 41.88938 12.24333 942 ft 139 kts 162°
2026-05-07 10:48 41.88019 12.24742 773 ft 139 kts 161°
2026-05-07 10:48 41.87102 12.25129 600 ft 141 kts 164°
2026-05-07 10:48 41.86146 12.25494 390 ft 141 kts 164°
2026-05-07 10:48 41.85199 12.25885 210 ft 143 kts 162°
2026-05-07 10:49 41.84270 12.26288 52 ft 141 kts 162°
2026-05-07 10:49 41.83383 12.26660 13 ft 115 kts 162°
2026-05-07 10:49 41.82791 12.26909 14 ft 66 kts 162°
2026-05-07 10:49 41.82436 12.27054 10 ft 47 kts 162°
2026-05-07 10:50 41.82130 12.27142 10 ft 43 kts 181°
2026-05-07 10:50 41.81902 12.27092 11 ft 15 kts 192°
2026-05-07 10:50 41.81805 12.27066 11 ft 13 kts 191°
2026-05-07 10:50 41.81720 12.27047 12 ft 11 kts 183°
2026-05-07 10:51 41.81647 12.27062 12 ft 10 kts 162°
2026-05-07 10:51 41.81584 12.27089 12 ft 9 kts 162°
2026-05-07 10:51 41.81529 12.27113 12 ft 8 kts 161°
2026-05-07 10:51 41.81482 12.27134 12 ft 7 kts 162°
2026-05-07 10:52 41.81440 12.27151 12 ft 6 kts 164°
2026-05-07 10:52 41.81374 12.27176 12 ft 13 kts 163°
2026-05-07 10:52 41.81295 12.27210 13 ft 11 kts 162°
2026-05-07 10:52 41.81223 12.27240 12 ft 12 kts 163°
2026-05-07 10:53 41.81128 12.27280 12 ft 15 kts 162°
2026-05-07 10:53 41.81036 12.27319 12 ft 13 kts 163°
2026-05-07 10:53 41.80948 12.27349 15 ft 14 kts 173°
2026-05-07 10:53 41.80846 12.27337 12 ft 14 kts 189°
2026-05-07 10:54 41.80751 12.27315 13 ft 13 kts 190°
2026-05-07 10:54 41.80673 12.27261 14 ft 12 kts 229°
2026-05-07 10:54 41.80637 12.27162 13 ft 11 kts 248°
2026-05-07 10:54 41.80612 12.27069 13 ft 10 kts 250°
2026-05-07 10:55 41.80586 12.26970 14 ft 13 kts 250°
2026-05-07 10:55 41.80556 12.26861 15 ft 12 kts 250°
2026-05-07 10:55 41.80529 12.26765 16 ft 10 kts 249°
2026-05-07 10:55 41.80506 12.26683 15 ft 9 kts 249°
2026-05-07 10:56 41.80476 12.26574 15 ft 14 kts 249°
2026-05-07 10:56 41.80443 12.26453 17 ft 14 kts 250°
2026-05-07 10:56 41.80393 12.26370 15 ft 11 kts 202°
2026-05-07 10:56 41.80318 12.26385 14 ft 11 kts 159°
2026-05-07 10:57 41.80246 12.26411 15 ft 10 kts 179°
2026-05-07 10:57 41.80178 12.26417 14 ft 10 kts 161°
2026-05-07 10:57 41.80118 12.26448 15 ft 9 kts 159°
2026-05-07 10:57 41.80093 12.26506 14 ft 8 kts 77°
2026-05-07 10:58 41.80104 12.26571 14 ft 7 kts 97°
2026-05-07 10:58 41.80073 12.26607 14 ft 6 kts 155°
2026-05-07 10:58 41.80028 12.26617 14 ft 6 kts 206°
2026-05-07 10:58 41.80011 12.26572 14 ft 5 kts 250°
2026-05-07 10:59 41.80009 12.26563 16 ft 0 kts 250°